Change the Weather History Date:

Tuesday, February 21, 2012

  Actual Average Record
Temperature  
Mean Temperature 28 °F -  
Max Temperature 37 °F 33 °F 46 °F (1961)
Min Temperature 19 °F 2 °F -21 °F (1975)
Degree Days  
Heating Degree Days 37    
Moisture  
Dew Point 25 °F    
Average Humidity 87    
Maximum Humidity 100    
Minimum Humidity 75    
Precipitation  
Precipitation 0.00 in - - ()
Sea Level Pressure  
Sea Level Pressure 29.90 in    
Wind  
Wind Speed 12 mph (SSW)    
Max Wind Speed 24 mph    
Max Gust Speed 33 mph    
Visibility 3 miles    
Events Snow    
Averages and records for this station are not official NWS values.
T = Trace of Precipitation, MM = Missing Value Source: NWS Daily Summary

Daily Weather History Graph

Daily Weather History Graph

Search for Another Location

Airport or City:

Trip Planner

Search our weather history database for the weather conditions in past years. The results will help you decide how hot, cold, wet, or windy it might be!

Date:

Astronomy

Feb. 21, 2012 Rise Set
Actual Time 7:13 AM MST 6:00 PM MST
Civil Twilight 6:43 AM MST 6:29 PM MST
Nautical Twilight 6:10 AM MST 7:03 PM MST
Astronomical Twilight 5:37 AM MST 7:36 PM MST
Moon 6:42 AM MST (2/21) 6:12 PM MST (2/21)
Length of Visible Light 11h 45m
Length of Day
10h 47m
Waning Crescent, 0% of the Moon is Illuminated
Feb 21
Waning Crescent
Feb 21
New
Feb 29
First Quarter
Mar 8
Full
Mar 14
Last Quarter

Hourly Weather History & Observations

Time (MST) Temp. Windchill Dew Point Humidity Pressure Visibility Wind Dir Wind Speed Gust Speed Precip Events Conditions
12:15 AM 21.2 °F 12.6 °F 17.6 °F 86% 29.93 in 3.0 mi SSW 6.9 mph - N/A   Overcast
12:35 AM 19.4 °F 10.4 °F 17.6 °F 93% 29.93 in 2.0 mi SSW 6.9 mph - N/A   Overcast
12:55 AM 19.4 °F 12.8 °F 17.6 °F 93% 29.93 in 1.5 mi South 4.6 mph - N/A   Overcast
1:15 AM 21.2 °F 14.9 °F 17.6 °F 86% 29.93 in 2.0 mi SSW 4.6 mph - N/A   Overcast
1:55 AM 21.2 °F 10.9 °F 19.4 °F 93% 29.92 in 2.5 mi SSW 9.2 mph - N/A   Overcast
2:15 AM 21.2 °F 10.1 °F 19.4 °F 93% 29.91 in 2.0 mi SSW 10.4 mph - N/A   Overcast
2:35 AM 21.2 °F 7.8 °F 19.4 °F 93% 29.90 in 2.0 mi SSW 15.0 mph - N/A   Overcast
2:56 AM 19.4 °F 7.9 °F 17.6 °F 93% 29.90 in 1.5 mi WSW 10.4 mph - N/A   Overcast
3:55 AM 21.2 °F 14.9 °F 19.4 °F 93% 29.88 in 1.8 mi WSW 4.6 mph - N/A   Overcast
4:15 AM 21.2 °F 16.4 °F 19.4 °F 93% 29.88 in 1.2 mi SW 3.5 mph - N/A   Overcast
4:35 AM 21.2 °F 16.4 °F 19.4 °F 93% 29.89 in 1.0 mi West 3.5 mph - N/A   Overcast
5:15 AM 21.2 °F 14.9 °F 21.2 °F 100% 29.89 in 1.5 mi South 4.6 mph - N/A   Overcast
6:15 AM 23.0 °F 14.7 °F 21.2 °F 93% 29.91 in 2.5 mi SSE 6.9 mph - N/A   Overcast
6:35 AM 24.8 °F 13.4 °F 21.2 °F 86% 29.90 in 4.0 mi South 12.7 mph - N/A   Overcast
6:53 AM 24.8 °F 14.6 °F 21.2 °F 86% 29.89 in 3.0 mi SSE 10.4 mph - N/A Snow Light Snow
7:51 AM 24.8 °F 20.5 °F 23.0 °F 93% 29.91 in 5.0 mi South 3.5 mph - N/A Snow Light Snow
8:57 AM 26.6 °F 20.0 °F 24.8 °F 93% 29.92 in 2.0 mi South 5.8 mph - N/A Snow Light Snow
9:09 AM 26.6 °F 15.2 °F 24.8 °F 93% 29.92 in 0.8 mi South 13.8 mph - N/A Snow Light Snow
9:56 AM 28.4 °F 17.0 °F 26.6 °F 93% 29.92 in 0.8 mi South 15.0 mph - N/A Snow Snow
10:51 AM 28.4 °F 16.6 °F 26.6 °F 93% 29.92 in 0.5 mi South 16.1 mph - N/A Snow Snow
11:55 AM 28.4 °F 15.4 °F 26.6 °F 93% 29.92 in 1.0 mi South 19.6 mph 24.2 mph N/A Snow Light Snow
12:20 PM 28.4 °F 14.7 °F 26.6 °F 93% 29.92 in 0.8 mi South 21.9 mph - N/A Snow Light Snow
12:52 PM 28.4 °F 15.1 °F 26.6 °F 93% 29.91 in 1.0 mi South 20.7 mph 28.8 mph N/A Snow Light Snow
1:57 PM 30.2 °F 16.5 °F 26.6 °F 86% 29.92 in 1.0 mi South 24.2 mph - N/A Snow Light Snow
2:56 PM 30.2 °F 17.8 °F 26.6 °F 86% 29.93 in 0.8 mi South 19.6 mph - N/A Snow Light Snow
3:32 PM 30.2 °F 17.8 °F 26.6 °F 86% 29.94 in 0.5 mi South 19.6 mph - N/A Snow Snow
3:56 PM 30.2 °F 17.4 °F 26.6 °F 86% 29.92 in 0.5 mi South 20.7 mph - N/A Snow Snow
4:55 PM 32.0 °F 21.6 °F 28.4 °F 87% 29.91 in 0.8 mi SSW 15.0 mph - N/A Snow Light Snow
5:14 PM 30.2 °F 19.8 °F 26.6 °F 86% 29.90 in 5.0 mi South 13.8 mph - N/A Snow Light Snow
5:29 PM 32.0 °F 20.8 °F 26.6 °F 80% 29.90 in 2.0 mi South 17.3 mph 21.9 mph N/A Snow Light Snow
5:52 PM 30.2 °F 18.1 °F 26.6 °F 86% 29.90 in 2.0 mi South 18.4 mph 21.9 mph N/A Snow Light Snow
6:51 PM 32.0 °F 20.1 °F 28.4 °F 87% 29.90 in 2.0 mi South 19.6 mph - N/A Snow Light Snow
7:53 PM 32.0 °F 20.5 °F 28.4 °F 87% 29.88 in 4.0 mi SSW 18.4 mph - N/A Snow Light Snow
8:17 PM 33.8 °F 22.5 °F 28.4 °F 81% 29.87 in 2.0 mi South 19.6 mph - N/A Snow Light Snow
8:51 PM 33.8 °F 22.5 °F 28.4 °F 81% 29.87 in 2.0 mi SSW 19.6 mph - N/A Snow Light Snow
8:55 PM 33.8 °F 23.2 °F 30.2 °F 87% 29.87 in 2.5 mi SW 17.3 mph - N/A   Overcast
9:15 PM 35.6 °F 24.5 °F 30.2 °F 81% 29.86 in 5.0 mi SSW 20.7 mph - N/A   Overcast
9:35 PM 35.6 °F 24.2 °F 30.2 °F 81% 29.87 in 10.0 mi SW 21.9 mph - N/A   Overcast
9:55 PM 35.6 °F 24.8 °F 28.4 °F 75% 29.88 in 9.0 mi SW 19.6 mph 28.8 mph N/A   Overcast
10:35 PM 35.6 °F 24.5 °F 30.2 °F 81% 29.88 in 9.0 mi SW 20.7 mph 26.5 mph N/A   Overcast
10:55 PM 35.6 °F 24.5 °F 30.2 °F 81% 29.87 in 3.0 mi SW 20.7 mph 27.6 mph N/A   Overcast
11:15 PM 37.4 °F 26.1 °F 30.2 °F 75% 29.87 in 9.0 mi SSW 24.2 mph 31.1 mph N/A   Overcast
11:35 PM 37.4 °F 26.9 °F 30.2 °F 75% 29.87 in 10.0 mi SW 20.7 mph 32.2 mph N/A   Mostly Cloudy
11:55 PM 37.4 °F 26.6 °F 30.2 °F 75% 29.86 in 9.0 mi SW 21.9 mph 33.4 mph N/A   Mostly Cloudy